2015-05-19 00:04:44 r, 20.92m,0000000001Hz,0001255399c,0000002.724s, 012.5C,00002191
2015-05-19 00:14:44 r, 20.92m,0000000000Hz,0001260967c,0000002.736s, 012.2C,00002191
2015-05-19 00:24:44 r, 20.94m,0000000001Hz,0001273948c,0000002.765s, 012.2C,00002191
2015-05-19 00:34:44 r, 20.94m,0000000001Hz,0001274315c,0000002.765s, 011.9C,00002191
2015-05-19 00:44:44 r, 20.94m,0000000000Hz,0001278247c,0000002.774s, 011.9C,00002191
2015-05-19 00:54:45 r, 20.93m,0000000000Hz,0001265300c,0000002.746s, 011.9C,00002191
2015-05-19 01:04:44 r, 20.89m,0000000000Hz,0001225695c,0000002.660s, 011.6C,00002191
2015-05-19 01:14:44 r, 20.85m,0000000000Hz,0001173071c,0000002.546s, 011.6C,00002191
2015-05-19 01:24:44 r, 20.78m,0000000000Hz,0001109870c,0000002.409s, 011.6C,00002191
2015-05-19 01:34:44 r, 20.78m,0000000001Hz,0001108632c,0000002.406s, 011.6C,00002191
2015-05-19 01:44:44 r, 20.76m,0000000000Hz,0001092031c,0000002.370s, 011.6C,00002191
2015-05-19 01:54:44 r, 20.76m,0000000000Hz,0001084830c,0000002.354s, 011.2C,00002191
2015-05-19 02:04:44 r, 20.73m,0000000001Hz,0001063315c,0000002.308s, 011.2C,00002191
2015-05-19 02:14:44 r, 20.71m,0000000001Hz,0001039663c,0000002.256s, 011.2C,00002191
2015-05-19 02:24:44 r, 20.70m,0000000000Hz,0001026456c,0000002.228s, 010.9C,00002191
2015-05-19 02:34:44 r, 20.68m,0000000000Hz,0001009278c,0000002.190s, 010.9C,00002191
2015-05-19 02:44:44 r, 20.67m,0000000000Hz,0001001427c,0000002.173s, 010.9C,00002191
2015-05-19 02:54:44 r, 20.67m,0000000000Hz,0000999289c,0000002.169s, 010.6C,00002191
2015-05-19 03:04:44 r, 20.65m,0000000000Hz,0000981135c,0000002.129s, 010.6C,00002191
2015-05-19 03:14:44 r, 20.62m,0000000001Hz,0000950520c,0000002.063s, 010.6C,00002191
2015-05-19 03:24:44 r, 20.55m,0000000000Hz,0000898170c,0000001.949s, 010.6C,00002191
2015-05-19 03:34:44 r, 20.46m,0000000000Hz,0000820663c,0000001.781s, 010.6C,00002191
2015-05-19 03:44:44 r, 20.25m,0000000000Hz,0000677736c,0000001.471s, 010.6C,00002191
2015-05-19 03:54:44 r, 19.89m,0000000001Hz,0000489686c,0000001.063s, 010.6C,00002191
2015-05-19 04:04:44 r, 19.30m,0000000001Hz,0000287967c,0000000.625s, 010.6C,00002191
2015-05-19 04:14:44 r, 18.51m,0000000004Hz,0000139056c,0000000.302s, 010.3C,00002191
2015-05-19 04:24:44 r, 17.54m,0000000008Hz,0000056644c,0000000.123s, 010.3C,00002191
2015-05-19 04:34:44 r, 16.40m,0000000023Hz,0000019993c,0000000.043s, 010.3C,00002191
2015-05-19 04:44:44 r, 15.07m,0000000078Hz,0000005870c,0000000.013s, 009.9C,00002191
2015-05-19 04:54:45 r, 13.58m,0000000313Hz,0000000000c,0000000.000s, 009.9C,00002191
2015-05-19 05:04:44 r, 12.00m,0000001342Hz,0000000000c,0000000.000s, 009.9C,00002191
2015-05-19 05:14:44 r, 10.45m,0000005631Hz,0000000000c,0000000.000s, 009.9C,00002191
2015-05-19 05:24:45 r, 09.02m,0000020916Hz,0000000000c,0000000.000s, 009.9C,00002191
2015-05-19 05:34:44 r, 07.88m,0000059681Hz,0000000000c,0000000.000s, 009.9C,00002191
2015-05-19 05:44:44 r, 07.04m,0000129711Hz,0000000000c,0000000.000s, 009.6C,00002191
2015-05-19 05:54:44 r, 06.43m,0000226049Hz,0000000000c,0000000.000s, 009.9C,00002191
2015-05-19 06:04:44 r, 05.98m,0000342229Hz,0000000000c,0000000.000s, 009.9C,00002191
2015-05-19 06:14:44 r, 00.00m,0000511370Hz,0000000000c,0000000.000s, 010.3C,00002191
2015-05-19 06:24:44 r, 00.00m,0000596226Hz,0000000000c,0000000.000s, 010.9C,00002191
2015-05-19 06:34:44 r, 00.00m,0000596222Hz,0000000000c,0000000.000s, 012.5C,00002191
2015-05-19 06:44:44 r, 00.00m,0000595936Hz,0000000000c,0000000.000s, 014.1C,00002191
2015-05-19 06:54:44 r, 00.00m,0000595826Hz,0000000000c,0000000.000s, 016.4C,00002191
2015-05-19 07:04:44 r, 00.00m,0000595699Hz,0000000000c,0000000.000s, 017.7C,00002191
2015-05-19 07:14:44 r, 00.00m,0000595760Hz,0000000000c,0000000.000s, 018.6C,00002191
2015-05-19 07:24:44 r, 00.00m,0000595570Hz,0000000000c,0000000.000s, 019.6C,00002191
2015-05-19 07:34:44 r, 00.00m,0000595486Hz,0000000000c,0000000.000s, 020.3C,00002191
2015-05-19 07:44:44 r, 00.00m,0000595283Hz,0000000000c,0000000.000s, 021.2C,00002191
2015-05-19 07:54:44 r, 00.00m,0000595275Hz,0000000000c,0000000.000s, 021.5C,00002191
2015-05-19 08:04:45 r, 00.00m,0000595226Hz,0000000000c,0000000.000s, 022.5C,00002191
2015-05-19 08:14:44 r, 00.00m,0000595197Hz,0000000000c,0000000.000s, 023.2C,00002191
2015-05-19 08:24:44 r, 00.00m,0000595151Hz,0000000000c,0000000.000s, 024.4C,00002191
2015-05-19 08:34:44 r, 00.00m,0000595023Hz,0000000000c,0000000.000s, 025.1C,00002191
2015-05-19 08:44:44 r, 00.00m,0000594908Hz,0000000000c,0000000.000s, 026.1C,00002191
2015-05-19 08:54:44 r, 00.00m,0000594793Hz,0000000000c,0000000.000s, 027.0C,00002191
2015-05-19 09:04:44 r, 00.00m,0000594671Hz,0000000000c,0000000.000s, 028.0C,00002191
2015-05-19 09:14:44 r, 00.00m,0000594470Hz,0000000000c,0000000.000s, 029.3C,00002191
2015-05-19 09:24:44 r, 00.00m,0000594270Hz,0000000000c,0000000.000s, 030.6C,00002191
2015-05-19 09:34:44 r, 00.00m,0000594225Hz,0000000000c,0000000.000s, 031.9C,00002191
2015-05-19 09:44:44 r, 00.00m,0000594061Hz,0000000000c,0000000.000s, 032.8C,00002191
2015-05-19 09:54:44 r, 00.00m,0000594030Hz,0000000000c,0000000.000s, 033.5C,00002191
2015-05-19 10:04:44 r, 00.00m,0000593792Hz,0000000000c,0000000.000s, 034.1C,00002191
2015-05-19 10:14:44 r, 00.00m,0000593695Hz,0000000000c,0000000.000s, 034.4C,00002191
2015-05-19 10:24:44 r, 00.00m,0000593697Hz,0000000000c,0000000.000s, 034.8C,00002191
2015-05-19 10:34:44 r, 00.00m,0000593616Hz,0000000000c,0000000.000s, 035.4C,00002191
2015-05-19 10:44:44 r, 00.00m,0000593580Hz,0000000000c,0000000.000s, 036.0C,00002191
2015-05-19 10:54:44 r, 00.00m,0000593526Hz,0000000000c,0000000.000s, 036.4C,00002191
2015-05-19 11:04:44 r, 00.00m,0000593379Hz,0000000000c,0000000.000s, 037.0C,00002191
2015-05-19 11:14:44 r, 00.00m,0000593288Hz,0000000000c,0000000.000s, 037.3C,00002191
2015-05-19 11:24:44 r, 00.00m,0000593281Hz,0000000000c,0000000.000s, 037.7C,00002191
2015-05-19 11:34:44 r, 00.00m,0000593177Hz,0000000000c,0000000.000s, 038.0C,00002191
2015-05-19 11:44:44 r, 00.00m,0000593176Hz,0000000000c,0000000.000s, 038.3C,00002191
2015-05-19 11:54:44 r, 00.00m,0000593072Hz,0000000000c,0000000.000s, 039.3C,00002191
2015-05-19 12:04:46 r, 00.00m,0000593020Hz,0000000000c,0000000.000s, 039.6C,00002191
2015-05-19 12:14:44 r, 00.00m,0000592944Hz,0000000000c,0000000.000s, 040.2C,00002191
2015-05-19 12:24:44 r, 00.00m,0000592858Hz,0000000000c,0000000.000s, 040.2C,00002191
2015-05-19 12:34:44 r, 00.00m,0000592827Hz,0000000000c,0000000.000s, 040.6C,00002191
2015-05-19 12:44:44 r, 00.00m,0000592704Hz,0000000000c,0000000.000s, 041.2C,00002191
2015-05-19 12:54:44 r, 00.00m,0000592632Hz,0000000000c,0000000.000s, 041.2C,00002191
2015-05-19 13:04:44 r, 00.00m,0000592632Hz,0000000000c,0000000.000s, 041.2C,00002191
2015-05-19 13:14:44 r, 00.00m,0000592635Hz,0000000000c,0000000.000s, 041.5C,00002191
2015-05-19 13:24:44 r, 00.00m,0000592622Hz,0000000000c,0000000.000s, 041.9C,00002191
2015-05-19 13:34:44 r, 00.00m,0000592665Hz,0000000000c,0000000.000s, 041.5C,00002191
2015-05-19 13:44:44 r, 00.00m,0000592523Hz,0000000000c,0000000.000s, 041.9C,00002191
2015-05-19 13:54:44 r, 00.00m,0000592539Hz,0000000000c,0000000.000s, 042.2C,00002191
2015-05-19 14:04:45 r, 00.00m,0000592543Hz,0000000000c,0000000.000s, 041.9C,00002191
2015-05-19 14:14:44 r, 00.00m,0000592519Hz,0000000000c,0000000.000s, 042.2C,00002191
2015-05-19 14:24:44 r, 00.00m,0000592558Hz,0000000000c,0000000.000s, 042.2C,00002191
2015-05-19 14:34:44 r, 00.00m,0000592536Hz,0000000000c,0000000.000s, 041.9C,00002191
2015-05-19 14:44:44 r, 00.00m,0000592507Hz,0000000000c,0000000.000s, 042.2C,00002191
2015-05-19 14:54:44 r, 00.00m,0000592518Hz,0000000000c,0000000.000s, 042.2C,00002191
2015-05-19 15:04:46 r, 00.00m,0000592599Hz,0000000000c,0000000.000s, 042.2C,00002191
2015-05-19 15:14:44 r, 00.00m,0000592613Hz,0000000000c,0000000.000s, 041.9C,00002191
2015-05-19 15:24:44 r, 00.00m,0000592614Hz,0000000000c,0000000.000s, 041.5C,00002191
2015-05-19 15:34:46 r, 00.00m,0000592660Hz,0000000000c,0000000.000s, 041.5C,00002191
2015-05-19 15:44:45 r, 00.00m,0000592685Hz,0000000000c,0000000.000s, 041.5C,00002191
2015-05-19 15:54:44 r, 00.00m,0000592764Hz,0000000000c,0000000.000s, 041.2C,00002191
2015-05-19 16:04:44 r, 00.00m,0000592720Hz,0000000000c,0000000.000s, 040.9C,00002191
2015-05-19 16:14:44 r, 00.00m,0000592802Hz,0000000000c,0000000.000s, 040.9C,00002191
2015-05-19 16:24:44 r, 00.00m,0000592795Hz,0000000000c,0000000.000s, 040.6C,00002191
2015-05-19 16:34:44 r, 00.00m,0000592895Hz,0000000000c,0000000.000s, 040.6C,00002191
2015-05-19 16:44:44 r, 00.00m,0000592888Hz,0000000000c,0000000.000s, 040.2C,00002191
2015-05-19 16:54:44 r, 00.00m,0000593050Hz,0000000000c,0000000.000s, 039.9C,00002191
2015-05-19 17:04:44 r, 00.00m,0000593042Hz,0000000000c,0000000.000s, 039.3C,00002191
2015-05-19 17:14:44 r, 00.00m,0000593153Hz,0000000000c,0000000.000s, 039.3C,00002191
2015-05-19 17:24:44 r, 00.00m,0000593196Hz,0000000000c,0000000.000s, 038.3C,00002191
2015-05-19 17:34:44 r, 00.00m,0000593293Hz,0000000000c,0000000.000s, 037.7C,00002191
2015-05-19 17:44:44 r, 00.00m,0000593333Hz,0000000000c,0000000.000s, 037.3C,00002191
2015-05-19 17:54:44 r, 00.00m,0000593410Hz,0000000000c,0000000.000s, 037.0C,00002191
2015-05-19 18:04:44 r, 00.00m,0000593488Hz,0000000000c,0000000.000s, 036.7C,00002191
2015-05-19 18:14:44 r, 00.00m,0000593605Hz,0000000000c,0000000.000s, 035.7C,00002191
2015-05-19 18:24:44 r, 00.00m,0000593676Hz,0000000000c,0000000.000s, 035.1C,00002191
2015-05-19 18:34:44 r, 00.00m,0000593827Hz,0000000000c,0000000.000s, 034.4C,00002191
2015-05-19 18:44:44 r, 00.00m,0000593925Hz,0000000000c,0000000.000s, 034.1C,00002191
2015-05-19 18:54:44 r, 00.00m,0000594043Hz,0000000000c,0000000.000s, 033.5C,00002191
2015-05-19 19:04:44 r, 00.00m,0000594088Hz,0000000000c,0000000.000s, 032.8C,00002191
2015-05-19 19:14:44 r, 00.00m,0000594108Hz,0000000000c,0000000.000s, 031.9C,00002191
2015-05-19 19:24:44 r, 00.00m,0000594243Hz,0000000000c,0000000.000s, 031.2C,00002191
2015-05-19 19:34:44 r, 00.00m,0000594228Hz,0000000000c,0000000.000s, 030.9C,00002191
2015-05-19 19:44:44 r, 00.00m,0000594454Hz,0000000000c,0000000.000s, 029.9C,00002191
2015-05-19 19:54:44 r, 00.00m,0000594474Hz,0000000000c,0000000.000s, 029.6C,00002191
2015-05-19 20:04:45 r, 00.00m,0000594585Hz,0000000000c,0000000.000s, 029.0C,00002191
2015-05-19 20:14:44 r, 00.00m,0000594658Hz,0000000000c,0000000.000s, 028.6C,00002191
2015-05-19 20:24:44 r, 00.00m,0000502619Hz,0000000000c,0000000.000s, 028.0C,00002191
2015-05-19 20:34:45 r, 05.81m,0000399583Hz,0000000000c,0000000.000s, 027.3C,00002191
2015-05-19 20:44:44 r, 06.16m,0000291404Hz,0000000000c,0000000.000s, 026.7C,00002191
2015-05-19 20:54:44 r, 06.64m,0000186964Hz,0000000000c,0000000.000s, 025.7C,00002191
2015-05-19 21:04:44 r, 07.24m,0000107254Hz,0000000000c,0000000.000s, 024.4C,00002191
2015-05-19 21:14:44 r, 08.06m,0000050444Hz,0000000000c,0000000.000s, 023.2C,00002191
2015-05-19 21:24:44 r, 09.17m,0000018192Hz,0000000000c,0000000.000s, 021.9C,00002191
2015-05-19 21:34:44 r, 10.57m,0000005045Hz,0000000000c,0000000.000s, 021.2C,00002191
2015-05-19 21:44:44 r, 12.14m,0000001179Hz,0000000000c,0000000.000s, 020.6C,00002191
2015-05-19 21:54:44 r, 13.79m,0000000257Hz,0000000000c,0000000.000s, 019.9C,00002191
2015-05-19 22:04:44 r, 15.42m,0000000058Hz,0000008039c,0000000.017s, 019.6C,00002191
2015-05-19 22:14:44 r, 16.74m,0000000017Hz,0000027143c,0000000.059s, 019.3C,00002191
2015-05-19 22:24:44 r, 17.82m,0000000006Hz,0000073765c,0000000.160s, 019.0C,00002191
2015-05-19 22:34:45 r, 18.75m,0000000003Hz,0000173746c,0000000.377s, 018.6C,00002191
2015-05-19 22:44:44 r, 19.53m,0000000002Hz,0000358259c,0000000.777s, 018.3C,00002191
2015-05-19 22:54:44 r, 20.13m,0000000001Hz,0000612431c,0000001.329s, 018.0C,00002191
2015-05-19 23:04:47 r, 20.47m,0000000001Hz,0000837342c,0000001.817s, 018.0C,00002191
2015-05-19 23:14:44 r, 20.68m,0000000000Hz,0001009410c,0000002.191s, 017.7C,00002191
2015-05-19 23:24:44 r, 20.80m,0000000001Hz,0001134451c,0000002.462s, 018.0C,00002191
2015-05-19 23:34:46 r, 20.81m,0000000001Hz,0001139878c,0000002.474s, 018.0C,00002191
2015-05-19 23:44:44 r, 20.86m,0000000000Hz,0001195893c,0000002.595s, 018.0C,00002191
2015-05-19 23:54:44 r, 20.84m,0000000001Hz,0001173793c,0000002.547s, 017.7C,00002191
